Location: Dead Woman Crossing
(43.5369°N, 106.3228°W)
Time: 12:10:10
(UTC+00:00)

ZACube-1 - Pass Details

Date: 07 July 2022
Orbit: 582 x 661 km, 97.6° (Epoch: 14 August)

Event Time Altitude Azimuth Distance (km) Brightness Sun altitude
Rises 10:28:07 0° 20° (NNE) 2,978 ? -9.8°
Reaches altitude 10° 10:30:27 10° 28° (NNE) 2,071 ? -9.5°
Maximum altitude 10:34:43 39° 97° (E) 982 ? -9.0°
Drops below altitude 10° 10:38:58 10° 167° (SSE) 2,073 ? -8.4°
Sets 10:41:18 0° 175° (S) 2,980 ? -8.1°
